This is the latest recevied weather packets stored in our database for station/object SV9TNF-56. If no packets are shown the sender has not sent any weather packets the latest 10 day(s).
| Time | Temp. | Humidity | Pressure | Rain* | Wind** | Luminosity | Snow |
|---|---|---|---|---|---|---|---|
| 1788566248 | 24.44° C | 68% | 1011.5 hPa | 0 mm | 22.8 m/s, 315° | - | - |
| 1788565948 | 24.44° C | 67% | 1011.5 hPa | 0 mm | 26.38 m/s, 330° | - | - |
| 1788565674 | 24.44° C | 68% | 1011.9 hPa | 0 mm | 14.31 m/s, 238° | - | - |
| 1788565347 | 24.44° C | 68% | 1011.9 hPa | 0 mm | 16.99 m/s, 265° | - | - |
| 1788565048 | 24.44° C | 69% | 1011.5 hPa | 0 mm | 18.33 m/s, 318° | - | - |
| 1788564747 | 24.44° C | 69% | 1011.5 hPa | 0 mm | 24.59 m/s, 354° | - | - |
| 1788564447 | 24.44° C | 70% | 1011.5 hPa | 0 mm | 30.4 m/s, 222° | - | - |
| 1788564147 | 24.44° C | 69% | 1011.9 hPa | 0 mm | 27.72 m/s, 288° | - | - |
| 1788563847 | 24.44° C | 68% | 1011.9 hPa | 0 mm | 35.32 m/s, 0° | - | - |
| 1788563547 | 24.44° C | 67% | 1011.9 hPa | 0 mm | 23.69 m/s, 297° | - | - |
| 1788563246 | 24.44° C | 67% | 1011.9 hPa | 0 mm | 34.42 m/s, 307° | - | - |
| 1788562947 | 24.44° C | 67% | 1011.9 hPa | 0 mm | 19.67 m/s, 256° | - | - |
| 1788562647 | 24.44° C | 67% | 1011.9 hPa | 0 mm | 35.76 m/s, 300° | - | - |
| 1788562347 | 24.44° C | 66% | 1012.2 hPa | 0 mm | 18.33 m/s, 296° | - | - |
| 1788562046 | 24.44° C | 69% | 1012.5 hPa | 0 mm | 15.2 m/s, 295° | - | - |
| 1788561747 | 24.44° C | 69% | 1012.2 hPa | 0 mm | 29.95 m/s, 262° | - | - |
| 1788561447 | 24.44° C | 68% | 1012.2 hPa | 0 mm | 19.67 m/s, 306° | - | - |
| 1788561146 | 24.44° C | 66% | 1012.2 hPa | 0 mm | 20.56 m/s, 282° | - | - |
| 1788560846 | 24.44° C | 66% | 1012.2 hPa | 0 mm | 31.29 m/s, 352° | - | - |
| 1788560546 | 24.44° C | 66% | 1011.9 hPa | 0 mm | 16.99 m/s, 252° | - | - |
| 1788560263 | 24.44° C | 65% | 1012.2 hPa | 0 mm | 12.52 m/s, 312° | - | - |
| 1788559946 | 24.44° C | 65% | 1012.2 hPa | 0 mm | 12.96 m/s, 318° | - | - |
| 1788559646 | 24.44° C | 65% | 1012.2 hPa | 0 mm | 29.95 m/s, 266° | - | - |
| 1788559346 | 24.44° C | 68% | 1011.9 hPa | 0 mm | 29.5 m/s, 330° | - | - |
| 1788559045 | 24.44° C | 69% | 1011.9 hPa | 0 mm | 29.5 m/s, 346° | - | - |
* Rain latest hour (hover to see other rain measurements)
** Current wind speed in m/s (hover to see current wind gust speed)